Wager Bay, Nunavut

7:16 AM MDT on August 18, 2017 (GMT -0600)
Wager Bay

Weather History for CXWB - November, 2012

Change the Weather History Date:

Tuesday, November 20, 2012

  Actual Average Record
Temperature  
Mean Temperature 4 °F -  
Max Temperature 16 °F - - ()
Min Temperature -7 °F - - ()
Degree Days  
Heating Degree Days 60    
Moisture  
Dew Point 10 °F    
Average Humidity 89    
Maximum Humidity 91    
Minimum Humidity 84    
Precipitation  
Precipitation 0.02 in - - ()
Sea Level Pressure  
Sea Level Pressure 29.79 in    
Wind  
Wind Speed 33 mph ()    
Max Wind Speed 43 mph    
Max Gust Speed 50 mph    
T = Trace of Precipitation, MM = Missing Value Source: Averaged Metar Reports

Daily Weather History Graph

Daily Weather History Graph

Search for Another Location

Airport or City:

Trip Planner

Search our weather history database for the weather conditions in past years. The results will help you decide how hot, cold, wet, or windy it might be!

Date:

Astronomy

Nov. 20, 2012 Rise Set
Actual Time 8:16 AM MST 1:29 PM MST
Civil Twilight 7:03 AM MST 2:41 PM MST
Nautical Twilight 5:55 AM MST 3:50 PM MST
Astronomical Twilight 4:53 AM MST 4:51 PM MST
Moon 12:10 PM MST (11/20) 10:54 PM MST (11/20)
Length of Visible Light 7h 38m
Length of Day
5h 12m
First Quarter, 52% of the Moon is Illuminated
Nov 20
First Quarter
Nov 28
Full
Dec 6
Last Quarter
Dec 13
New
Dec 19
First Quarter

Hourly Weather History & Observations

Time (MST) Temp. Windchill Dew Point Humidity Pressure Visibility Wind Dir Wind Speed Gust Speed Precip Events Conditions
12:00 AM 6.1 °F -18.6 °F 2.7 °F 86% 30.03 in - East 33.4 mph 39.1 mph N/A   Unknown
1:00 AM 6.8 °F -18.2 °F 3.7 °F 87% 29.99 in - East 35.7 mph - N/A   Unknown
2:00 AM 5.9 °F -19.7 °F 2.8 °F 87% 29.96 in - East 36.8 mph - N/A   Unknown
3:00 AM 5.9 °F -19.4 °F 2.8 °F 87% 29.94 in - East 35.7 mph 42.6 mph N/A   Unknown
4:00 AM 8.2 °F -15.6 °F 5.4 °F 88% 29.92 in - East 33.4 mph 41.4 mph N/A   Unknown
5:00 AM 9 °F - 6 °F 84% 29.88 in - East 36.8 mph - -  
5:00 AM 9.1 °F -15.3 °F 6.4 °F 89% 29.88 in - East 36.8 mph 44.9 mph N/A   Unknown
6:00 AM 9.5 °F -15.3 °F 6.6 °F 88% 29.87 in - East 39.1 mph 46.0 mph N/A   Unknown
7:00 AM 10.4 °F -13.5 °F 7.7 °F 89% 29.85 in - East 36.8 mph 43.7 mph N/A   Unknown
8:00 AM 11.3 °F -12.6 °F 8.6 °F 89% 29.82 in - East 38.0 mph 44.9 mph N/A   Unknown
9:00 AM 14.0 °F -8.3 °F 11.7 °F 90% 29.80 in - East 35.7 mph 44.9 mph N/A   Unknown
10:00 AM 14.2 °F -8.0 °F 11.8 °F 90% 29.78 in - East 35.7 mph 44.9 mph N/A   Unknown
11:00 AM 14 °F - 12 °F 89% 29.76 in - East 35.7 mph - -  
11:00 AM 14.4 °F -7.8 °F 12.2 °F 91% 29.76 in - East 35.7 mph 43.7 mph N/A   Unknown
12:00 PM 15.1 °F -8.0 °F 12.9 °F 91% 29.74 in - East 41.4 mph 47.2 mph N/A   Unknown
1:00 PM 15.4 °F -7.5 °F 13.3 °F 91% 29.73 in - East 41.4 mph - N/A   Unknown
2:00 PM 15.1 °F -8.0 °F 12.9 °F 91% 29.72 in - East 41.4 mph 47.2 mph N/A   Unknown
3:00 PM 14.9 °F -8.1 °F 12.7 °F 91% 29.71 in - East 40.3 mph 47.2 mph N/A   Unknown
4:00 PM 14.9 °F -7.8 °F 12.7 °F 91% 29.71 in - East 39.1 mph 44.9 mph N/A   Unknown
5:00 PM 15 °F - 13 °F 87% 29.72 in - East 35.7 mph - -  
5:00 PM 15.1 °F -6.8 °F 12.9 °F 91% 29.72 in - East 35.7 mph 42.6 mph 0.02 in   Unknown
6:00 PM 15.3 °F -7.3 °F 13.1 °F 91% 29.71 in - East 39.1 mph 46.0 mph N/A   Unknown
7:00 PM 15.4 °F -7.8 °F 13.3 °F 91% 29.70 in - East 42.6 mph 49.5 mph 0.01 in   Unknown
8:00 PM 15.6 °F -6.8 °F 13.3 °F 90% 29.70 in - East 39.1 mph 46.0 mph N/A   Unknown
9:00 PM 14.9 °F -7.3 °F 12.6 °F 90% 29.69 in - ENE 36.8 mph 44.9 mph N/A   Unknown
10:00 PM 14.7 °F -7.8 °F 12.4 °F 90% 29.70 in - East 38.0 mph 46.0 mph N/A   Unknown
11:00 PM 15 °F - 12 °F 84% 29.69 in - East 41.4 mph - -  
11:00 PM 14.7 °F -8.5 °F 12.4 °F 90% 29.69 in - East 41.4 mph 47.2 mph N/A   Unknown